CW7769 Weather Reports


time (UTC)temp
C
wind
direction
speed
KPH
gust
KPH
rain 1hr
cm
rain 24hr
cm
rain mn
cm
humidity
%
barometer
mb
20260506161041 16 190 6.4 22.5 0.00 0.66 0.00 59 1006.4
20260506160011 16 165 4.8 14.5 0.00 0.66 0.00 57 1006.4
20260506153939 17 130 1.6 8.0 0.00 0.66 0.00 51 1006.2
20260506152913 17 155 1.6 6.4 0.00 0.66 0.00 50 1006.2
20260506151925 18 173 1.6 11.3 0.00 0.66 0.00 50 1006.1
20260506150933 18 171 3.2 9.7 0.00 0.66 0.00 49 1006.2
20260506144748 18 207 1.6 8.0 0.00 0.66 0.00 49 1006.1
20260506143751 18 209 0.0 0.0 0.00 0.66 0.00 50 1006.0
20260506142805 18 271 1.6 9.7 0.00 0.66 0.00 49 1005.9
20260506141829 17 266 1.6 11.3 0.00 0.66 0.00 50 1005.9
20260506140825 17 286 1.6 11.3 0.00 0.66 0.00 49 1005.9
20260506135759 17 234 1.6 8.0 0.00 0.69 0.00 49 1005.9
20260506133650 18 284 3.2 19.3 0.00 0.71 0.00 50 1006.1
20260506132650 18 270 4.8 19.3 0.00 0.74 0.00 50 1006.1
20260506130449 18 238 4.8 17.7 0.00 0.74 0.00 50 1006.0
20260506125442 18 257 1.6 11.3 0.00 0.74 0.00 51 1006.0
20260506124442 18 271 4.8 12.9 0.00 0.74 0.00 51 1006.0
20260506123440 18 277 1.6 17.7 0.00 0.74 0.00 49 1005.9
20260506121255 20 262 4.8 20.9 0.00 0.74 0.00 49 1005.9
20260506120232 19 251 1.6 17.7 0.00 0.74 0.00 49 1005.9
20260506115247 19 209 3.2 17.7 0.00 0.74 0.00 49 1006.0
20260506114232 18 268 4.8 12.9 0.00 0.74 0.00 50 1006.0
20260506113214 18 250 4.8 0.0 0.00 0.74 0.00 50 1006.1
20260506112217 18 259 3.2 11.3 0.00 0.74 0.00 52 1006.2
20260506111223 17 182 3.2 0.0 0.00 0.74 0.00 54 1006.4
20260506110239 18 267 4.8 14.5 0.00 0.74 0.00 52 1006.5
20260506105251 18 273 1.6 16.1 0.00 0.74 0.00 52 1006.5
20260506104220 17 262 4.8 16.1 0.00 0.74 0.00 54 1006.6
20260506103234 17 291 1.6 14.5 0.00 0.74 0.00 54 1006.6
20260506102254 17 286 4.8 16.1 0.00 0.74 0.00 54 1006.6
20260506101226 17 257 4.8 16.1 0.00 0.74 0.00 54 1006.6
20260506093954 16 265 4.8 14.5 0.00 0.74 0.00 58 1006.8
20260506093012 16 287 3.2 17.7 0.00 0.74 0.00 58 1006.7
20260506085735 17 213 4.8 17.7 0.00 0.74 0.00 59 1006.7
20260506084702 16 206 6.4 17.7 0.00 0.74 0.00 60 1006.6
20260506083644 16 242 4.8 12.9 0.00 0.74 0.00 62 1006.4
20260506081527 15 310 6.4 12.9 0.00 0.74 0.00 64 1006.2
20260506080539 15 280 6.4 12.9 0.00 0.74 0.00 66 1006.2
20260506072336 14 221 3.2 9.7 0.00 0.74 0.00 84 1006.4
20260506070301 13 217 1.6 6.4 0.00 0.74 0.00 84 1006.3
20260506062100 12 223 0.0 0.0 0.00 0.74 0.00 85 1006.2
20260506061045 12 183 0.0 0.0 0.00 0.74 0.00 85 1006.2
20260506051143 11 184 0.0 0.0 0.00 0.74 0.00 83 1006.3
20260506050124 11 184 0.0 0.0 0.00 0.74 0.00 83 1006.3
20260506045123 11 184 0.0 0.0 0.00 0.74 0.00 82 1006.2
20260506044146 11 184 0.0 0.0 0.00 0.74 0.00 82 1006.2
20260506042035 11 184 3.2 8.0 0.00 0.74 0.00 82 1006.2
20260506041008 11 200 1.6 8.0 0.00 0.74 0.00 82 1006.2
20260506035937 11 217 0.0 3.2 0.00 0.74 0.00 82 1006.1
20260506034934 11 217 1.6 8.0 0.00 0.74 0.00 82 1006.2
20260506032850 11 173 0.0 0.0 0.00 0.74 0.00 82 1006.4
20260506031816 11 173 0.0 0.0 0.00 0.74 0.00 82 1006.5
20260506030837 11 173 0.0 0.0 0.00 0.74 0.00 82 1006.5
20260506024638 11 167 3.2 12.9 0.00 0.74 0.00 82 1006.7
20260506023621 12 179 6.4 14.5 0.00 0.74 0.00 82 1006.7
20260506022622 12 175 6.4 14.5 0.00 0.74 0.00 81 1006.7
20260506021601 12 180 3.2 12.9 0.00 0.74 0.00 81 1006.7
20260506015445 12 172 1.6 8.0 0.00 0.74 0.00 81 1006.7
20260506013336 12 180 4.8 14.5 0.00 0.74 0.00 81 1006.8
20260506012315 12 200 4.8 9.7 0.00 0.74 0.00 81 1006.8
20260506011247 12 187 0.0 8.0 0.00 0.74 0.00 80 1006.9
20260506010308 12 166 0.0 0.0 0.00 0.74 0.00 80 1007.0
20260506005250 12 166 0.0 0.0 0.00 0.74 0.00 80 1007.0
20260506003131 12 166 1.6 6.4 0.00 0.74 0.00 80 1007.2
20260506002120 12 165 0.0 4.8 0.00 0.74 0.00 79 1007.4
20260506001127 12 179 0.0 0.0 0.00 0.74 0.00 79 1007.3
20260506000147 12 179 1.6 6.4 0.00 0.74 0.00 79 1007.4
20260505235206 12 180 3.2 9.7 0.00 0.74 0.00 79 1007.4
20260505233125 12 174 1.6 6.4 0.00 0.74 0.00 78 1007.5
20260505232130 12 188 1.6 4.8 0.00 0.74 0.00 78 1007.5
20260505231118 13 188 1.6 6.4 0.00 0.74 0.00 78 1007.7
20260505222801 13 202 4.8 9.7 0.00 0.74 0.00 77 1007.6
20260505220602 13 164 4.8 9.7 0.00 0.74 0.00 76 1007.5
20260505215620 13 167 4.8 8.0 0.00 0.74 0.74 76 1007.5
20260505214555 13 161 4.8 8.0 0.00 0.74 0.74 76 1007.6
20260505213611 13 184 3.2 8.0 0.00 0.74 0.74 75 1007.5
20260505212545 13 176 1.6 8.0 0.00 0.74 0.74 75 1007.4
20260505211512 14 175 0.0 4.8 0.00 0.74 0.74 75 1007.6
20260505203114 13 158 0.0 6.4 0.00 0.74 0.74 72 1007.7
20260505202117 14 157 0.0 3.2 0.08 0.74 0.74 72 1007.7
20260505201104 14 157 0.0 6.4 0.08 0.74 0.74 72 1007.7
20260505200100 14 146 0.0 4.8 0.10 0.71 0.71 71 1007.7
20260505195035 14 144 0.0 3.2 0.18 0.69 0.69 71 1007.6
20260505194036 14 143 0.0 0.0 0.13 0.66 0.66 70 1007.6
20260505193002 15 143 1.6 14.5 0.43 0.64 0.64 70 1007.4
20260505191936 15 161 1.6 14.5 0.69 0.53 0.56 70 1007.5
20260505190913 16 162 0.0 6.4 0.25 0.25 0.25 69 1007.5
20260505185904 16 174 0.0 1.6 1.42 0.10 0.15 68 1007.4
20260505183726 16 219 0.0 0.0 0.00 0.08 0.08 67 1007.1
20260505182705 16 219 0.0 0.0 0.00 0.08 0.08 66 1007.0
20260505180449 16 219 0.0 0.0 0.00 0.08 0.08 65 1006.9
20260505175451 16 219 0.0 0.0 0.00 0.08 0.08 65 1006.9
20260505174504 16 219 0.0 0.0 0.00 0.08 0.08 65 1007.0
20260505172408 16 219 0.0 0.0 0.00 0.08 0.08 65 1007.0
20260505171357 16 219 0.0 0.0 0.00 0.08 0.08 65 1007.0
20260505170417 16 219 0.0 0.0 0.00 0.08 0.08 66 1007.0
20260505164254 17 219 0.0 0.0 0.00 0.08 0.08 67 1007.1
20260505163234 17 219 0.0 0.0 0.00 0.08 0.08 68 1007.2
20260505162214 17 219 0.0 0.0 0.00 0.08 0.08 68 1007.2